HL8080 RJGG-RKSS

Flight info

Callsign HL8080
Flight time N/A
Altitude 38000
Route YME Y18 MIHOU Y38 SAPRA G585 GUKDO
Aircraft A319/M-SDE3FGHIRWY/LB1

Departure

Time 2026-05-01 11:47
Airport Chubu Centrair International Airport (RJGG)

Arrival

Time N/A
Airport Gimpo International Airport (RKSS)
Time Latitude Longitude Altitude Speed Heading
2026-05-01 11:41 34.87349 136.80680 23 ft 2 kts 78°
2026-05-01 11:41 34.87346 136.80661 21 ft 2 kts 78°
2026-05-01 11:41 34.87343 136.80641 22 ft 2 kts 56°
2026-05-01 11:42 34.87330 136.80635 21 ft 2 kts 355°
2026-05-01 11:42 34.87317 136.80638 21 ft 0 kts 352°
2026-05-01 11:44 34.87318 136.80638 19 ft 1 kts 351°
2026-05-01 11:44 34.87330 136.80635 20 ft 3 kts 349°
2026-05-01 11:44 34.87354 136.80629 19 ft 4 kts 347°
2026-05-01 11:44 34.87390 136.80619 19 ft 6 kts 348°
2026-05-01 11:45 34.87427 136.80592 21 ft 6 kts 296°
2026-05-01 11:45 34.87423 136.80565 19 ft 4 kts 278°
2026-05-01 11:45 34.87425 136.80495 19 ft 13 kts 266°
2026-05-01 11:45 34.87404 136.80356 21 ft 19 kts 258°
2026-05-01 11:46 34.87380 136.80210 20 ft 14 kts 259°
2026-05-01 11:46 34.87313 136.80184 21 ft 13 kts 168°
2026-05-01 11:46 34.87028 136.80251 19 ft 79 kts 169°
2026-05-01 11:46 34.86265 136.80435 22 ft 141 kts 169°
2026-05-01 11:47 34.85151 136.80695 207 ft 169 kts 177°
2026-05-01 11:47 34.84003 136.80857 881 ft 165 kts 192°
2026-05-01 11:47 34.82965 136.80383 1542 ft 155 kts 225°
2026-05-01 11:47 34.82305 136.79357 2070 ft 161 kts 251°
2026-05-01 11:48 34.82171 136.77938 2405 ft 183 kts 280°
2026-05-01 11:48 34.82825 136.76495 2787 ft 215 kts 313°
2026-05-01 11:48 34.84294 136.75723 3473 ft 243 kts 341°
2026-05-01 11:48 34.85981 136.75351 4443 ft 249 kts 345°
2026-05-01 11:49 34.87711 136.75031 5401 ft 254 kts 346°
2026-05-01 11:49 34.89403 136.74460 6293 ft 252 kts 327°
2026-05-01 11:49 34.90647 136.73021 7158 ft 249 kts 301°
2026-05-01 11:49 34.91556 136.71223 8118 ft 250 kts 302°
2026-05-01 11:50 34.92571 136.69484 9097 ft 252 kts 304°
2026-05-01 11:50 34.93618 136.67794 9980 ft 255 kts 304°
2026-05-01 11:50 34.94721 136.66021 10489 ft 273 kts 304°
2026-05-01 11:50 34.95900 136.64094 10871 ft 292 kts 304°
2026-05-01 11:51 34.97118 136.62080 11585 ft 297 kts 304°
2026-05-01 11:51 34.98346 136.60035 12406 ft 300 kts 303°
2026-05-01 11:51 34.99584 136.57962 13224 ft 303 kts 303°
2026-05-01 11:51 35.00826 136.55879 13965 ft 305 kts 304°
2026-05-01 11:52 35.02080 136.53767 14692 ft 307 kts 304°
2026-05-01 11:52 35.03339 136.51645 15427 ft 310 kts 304°
2026-05-01 11:52 35.04604 136.49501 16178 ft 312 kts 304°
2026-05-01 11:52 35.05873 136.47346 16896 ft 314 kts 304°
2026-05-01 11:53 35.07163 136.45184 17581 ft 317 kts 305°
2026-05-01 11:53 35.08462 136.43041 18256 ft 319 kts 306°
2026-05-01 11:53 35.09792 136.40860 18880 ft 322 kts 306°
2026-05-01 11:53 35.11133 136.38653 19468 ft 325 kts 306°
2026-05-01 11:54 35.12479 136.36429 20064 ft 327 kts 306°
2026-05-01 11:54 35.13831 136.34190 20782 ft 326 kts 306°
2026-05-01 11:54 35.15176 136.31961 21474 ft 327 kts 307°
2026-05-01 11:54 35.16539 136.29702 21967 ft 332 kts 307°
2026-05-01 11:55 35.17918 136.27412 22547 ft 335 kts 307°
2026-05-01 11:55 35.19305 136.25109 23140 ft 337 kts 307°
2026-05-01 11:55 35.20684 136.22817 23609 ft 340 kts 307°
2026-05-01 11:55 35.22092 136.20475 24047 ft 343 kts 307°
2026-05-01 11:56 35.23420 136.18028 24491 ft 347 kts 300°
2026-05-01 11:56 35.24347 136.15289 24937 ft 351 kts 290°
2026-05-01 11:56 35.25019 136.12420 25445 ft 353 kts 290°
2026-05-01 11:56 35.25709 136.09513 25753 ft 358 kts 290°
2026-05-01 11:57 35.26413 136.06563 26162 ft 362 kts 290°
2026-05-01 11:57 35.26882 136.04601 26445 ft 363 kts 290°
2026-05-01 11:57 35.27832 136.00618 27035 ft 366 kts 289°
2026-05-01 11:57 35.28545 135.97610 27449 ft 369 kts 289°
2026-05-01 11:58 35.29257 135.94600 27927 ft 368 kts 289°
2026-05-01 11:58 35.29967 135.91594 28493 ft 367 kts 289°
2026-05-01 11:58 35.31390 135.85545 29264 ft 375 kts 289°
2026-05-01 11:59 35.32120 135.82446 29504 ft 382 kts 289°
2026-05-01 11:59 35.32860 135.79304 29841 ft 385 kts 289°
2026-05-01 11:59 35.33596 135.76178 30110 ft 387 kts 289°
2026-05-01 12:00 35.35078 135.69850 30888 ft 388 kts 289°
2026-05-01 12:00 35.35825 135.66661 31177 ft 390 kts 289°
2026-05-01 12:00 35.37321 135.60257 31949 ft 392 kts 289°
2026-05-01 12:01 35.38075 135.57024 32179 ft 396 kts 289°
2026-05-01 12:01 35.38826 135.53794 32641 ft 394 kts 289°
2026-05-01 12:01 35.39576 135.50566 33069 ft 394 kts 288°
2026-05-01 12:01 35.40323 135.47341 33477 ft 394 kts 288°
2026-05-01 12:02 35.41069 135.44109 33839 ft 394 kts 288°
2026-05-01 12:02 35.41818 135.40876 34190 ft 395 kts 288°
2026-05-01 12:02 35.42317 135.38728 34240 ft 396 kts 283°
2026-05-01 12:02 35.43331 135.34352 34434 ft 402 kts 280°
2026-05-01 12:03 35.43837 135.32159 34504 ft 406 kts 280°
2026-05-01 12:03 35.44609 135.28795 34622 ft 412 kts 280°
2026-05-01 12:03 35.45645 135.24274 34776 ft 420 kts 280°
2026-05-01 12:04 35.47240 135.17298 35135 ft 427 kts 280°
2026-05-01 12:04 35.47759 135.14970 35339 ft 425 kts 277°
2026-05-01 12:04 35.48156 135.11366 35638 ft 418 kts 268°
2026-05-01 12:04 35.48270 135.07807 35945 ft 418 kts 268°
2026-05-01 12:05 35.48379 135.04295 36256 ft 417 kts 268°
2026-05-01 12:05 35.48595 134.97197 36841 ft 416 kts 268°
2026-05-01 12:05 35.48701 134.93652 37091 ft 416 kts 268°
2026-05-01 12:06 35.48804 134.90113 37342 ft 416 kts 268°
2026-05-01 12:06 35.48909 134.86569 37568 ft 416 kts 268°
2026-05-01 12:06 35.49126 134.79492 37643 ft 414 kts 268°
2026-05-01 12:07 35.49331 134.72434 37643 ft 413 kts 268°
2026-05-01 12:07 35.49530 134.65375 37651 ft 414 kts 268°
2026-05-01 12:08 35.49726 134.58348 37652 ft 414 kts 268°
2026-05-01 12:08 35.49921 134.51278 37657 ft 414 kts 268°
2026-05-01 12:09 35.50106 134.44215 37737 ft 414 kts 269°
2026-05-01 12:09 35.50289 134.37149 37773 ft 413 kts 269°
2026-05-01 12:10 35.50558 134.26577 37802 ft 413 kts 269°
2026-05-01 12:11 35.50816 134.16068 37809 ft 412 kts 270°
2026-05-01 12:11 35.50978 134.09033 37802 ft 412 kts 270°
2026-05-01 12:12 35.51143 134.02018 37718 ft 411 kts 270°
2026-05-01 12:12 35.51306 133.95008 37719 ft 410 kts 270°
2026-05-01 12:13 35.51454 133.88006 37720 ft 410 kts 270°
2026-05-01 12:13 35.51598 133.81014 37736 ft 410 kts 271°
2026-05-01 12:14 35.51739 133.74072 37734 ft 409 kts 271°
2026-05-01 12:14 35.51881 133.67092 37735 ft 409 kts 271°
2026-05-01 12:15 35.52026 133.60112 37764 ft 408 kts 272°
2026-05-01 12:15 35.52191 133.53149 37791 ft 407 kts 272°
2026-05-01 12:16 35.52356 133.46207 37811 ft 406 kts 272°
2026-05-01 12:16 35.52510 133.39325 37840 ft 406 kts 272°
2026-05-01 12:17 35.52656 133.32416 37848 ft 405 kts 272°
2026-05-01 12:17 35.52803 133.25493 37848 ft 405 kts 272°
2026-05-01 12:18 35.52943 133.18583 37841 ft 404 kts 273°
2026-05-01 12:18 35.53071 133.11704 37829 ft 403 kts 273°
2026-05-01 12:19 35.53673 133.04893 37846 ft 401 kts 279°
2026-05-01 12:19 35.54101 133.01522 37679 ft 398 kts 282°
2026-05-01 12:19 35.54516 132.98222 37843 ft 383 kts 283°
2026-05-01 12:20 35.54904 132.95084 37850 ft 372 kts 283°
2026-05-01 12:20 35.55289 132.91967 37846 ft 367 kts 283°
2026-05-01 12:20 35.56065 132.85794 37844 ft 365 kts 283°
2026-05-01 12:21 35.56839 132.79647 37839 ft 364 kts 283°
2026-05-01 12:21 35.57595 132.73486 37827 ft 364 kts 283°
2026-05-01 12:22 35.58349 132.67333 37792 ft 364 kts 284°
2026-05-01 12:22 35.59154 132.61219 37813 ft 362 kts 284°
2026-05-01 12:23 35.59970 132.55131 37818 ft 360 kts 284°
2026-05-01 12:23 35.60767 132.49061 37814 ft 359 kts 284°
2026-05-01 12:24 35.61551 132.42999 37804 ft 363 kts 284°
2026-05-01 12:24 35.62356 132.36768 37801 ft 375 kts 284°
2026-05-01 12:25 35.63579 132.27226 37802 ft 378 kts 284°
2026-05-01 12:26 35.64390 132.20883 37803 ft 378 kts 284°
2026-05-01 12:26 35.65599 132.11358 37811 ft 375 kts 284°
2026-05-01 12:27 35.66802 132.01875 37815 ft 373 kts 284°
2026-05-01 12:28 35.67979 131.92443 37837 ft 370 kts 284°